Time,TemperatureF,DewpointF,PressureIn,WindDirection,WindDirectionDegrees,WindSpeedMPH,WindSpeedGustMPH,Humidity,HourlyPrecipIn,Conditions,Clouds,dailyrainin,SoftwareType,DateUTC
2013-07-15 00:00:00,71.8,70.0,30.29,West,259,0.0,0.0,94,0.00,,,0.90,Wunderground v.1.15,2013-07-15 04:00:00,
2013-07-15 00:10:00,71.7,69.9,30.29,West,259,0.0,0.0,94,0.00,,,0.00,Wunderground v.1.15,2013-07-15 04:10:00,
2013-07-15 00:20:00,71.6,69.8,30.29,West,259,0.0,0.0,94,0.00,,,0.00,Wunderground v.1.15,2013-07-15 04:20:00,
2013-07-15 00:30:00,71.5,70.0,30.29,West,259,0.0,0.0,95,0.00,,,0.00,Wunderground v.1.15,2013-07-15 04:30:00,
2013-07-15 00:40:00,71.3,69.5,30.29,West,259,0.0,0.0,94,0.00,,,0.00,Wunderground v.1.15,2013-07-15 04:40:00,
2013-07-15 00:50:00,71.3,69.5,30.29,West,259,0.0,0.0,94,0.00,,,0.00,Wunderground v.1.15,2013-07-15 04:50:00,
2013-07-15 01:00:00,71.1,69.6,30.29,West,259,0.0,0.0,95,0.00,,,0.00,Wunderground v.1.15,2013-07-15 05:00:00,
2013-07-15 01:10:00,70.8,69.3,30.29,West,259,0.0,0.0,95,0.00,,,0.00,Wunderground v.1.15,2013-07-15 05:10:00,
2013-07-15 01:20:00,70.6,68.8,30.29,West,259,0.0,0.0,94,0.00,,,0.00,Wunderground v.1.15,2013-07-15 05:20:00,
2013-07-15 01:30:00,70.5,69.0,30.29,West,259,0.0,0.0,95,0.00,,,0.00,Wunderground v.1.15,2013-07-15 05:30:00,
2013-07-15 01:40:00,70.4,68.9,30.29,West,259,0.0,0.0,95,0.00,,,0.00,Wunderground v.1.15,2013-07-15 05:40:00,
2013-07-15 01:50:00,70.3,68.8,30.29,West,259,0.0,0.0,95,0.00,,,0.00,Wunderground v.1.15,2013-07-15 05:50:00,
2013-07-15 02:00:00,70.1,68.6,30.29,West,259,0.0,0.0,95,0.00,,,0.00,Wunderground v.1.15,2013-07-15 06:00:00,
2013-07-15 02:10:00,69.9,68.4,30.29,West,259,0.0,0.0,95,0.00,,,0.00,Wunderground v.1.15,2013-07-15 06:10:00,
2013-07-15 02:20:00,69.7,68.2,30.29,West,259,0.0,0.0,95,0.00,,,0.01,Wunderground v.1.15,2013-07-15 06:20:00,
2013-07-15 02:30:00,69.6,68.1,30.29,West,259,0.0,0.0,95,0.00,,,0.01,Wunderground v.1.15,2013-07-15 06:30:00,
2013-07-15 02:40:00,69.6,68.1,30.29,West,259,0.0,0.0,95,0.00,,,0.01,Wunderground v.1.15,2013-07-15 06:40:00,
2013-07-15 02:50:00,69.4,67.9,30.29,West,259,0.0,0.0,95,0.00,,,0.01,Wunderground v.1.15,2013-07-15 06:50:00,
2013-07-15 03:00:00,69.2,67.7,30.29,West,259,0.0,0.0,95,0.00,,,0.01,Wunderground v.1.15,2013-07-15 07:00:00,
2013-07-15 03:10:00,69.0,67.5,30.29,West,259,0.0,0.0,95,0.00,,,0.01,Wunderground v.1.15,2013-07-15 07:10:00,
2013-07-15 03:20:00,68.9,67.4,30.29,West,259,0.0,0.0,95,0.00,,,0.01,Wunderground v.1.15,2013-07-15 07:20:00,
2013-07-15 03:30:00,68.7,67.2,30.29,West,259,0.0,0.0,95,0.00,,,0.01,Wunderground v.1.15,2013-07-15 07:30:00,
2013-07-15 03:40:00,68.7,67.2,30.29,West,259,0.0,0.0,95,0.00,,,0.01,Wunderground v.1.15,2013-07-15 07:40:00,
2013-07-15 03:50:00,68.6,67.1,30.29,West,259,0.0,0.0,95,0.00,,,0.01,Wunderground v.1.15,2013-07-15 07:50:00,
2013-07-15 04:00:00,68.5,67.0,30.29,West,259,0.0,0.0,95,0.00,,,0.01,Wunderground v.1.15,2013-07-15 08:00:00,
2013-07-15 04:10:00,68.3,66.8,30.29,West,259,0.0,0.0,95,0.00,,,0.01,Wunderground v.1.15,2013-07-15 08:10:00,
2013-07-15 04:20:00,68.1,66.6,30.29,West,259,0.0,0.0,95,0.00,,,0.01,Wunderground v.1.15,2013-07-15 08:20:00,
2013-07-15 04:30:00,68.1,66.6,30.29,West,259,0.0,0.0,95,0.00,,,0.01,Wunderground v.1.15,2013-07-15 08:30:00,
2013-07-15 04:40:00,68.0,66.5,30.29,West,259,0.0,0.0,95,0.00,,,0.01,Wunderground v.1.15,2013-07-15 08:40:00,
2013-07-15 04:50:00,68.0,66.5,30.29,West,259,0.0,0.0,95,0.00,,,0.01,Wunderground v.1.15,2013-07-15 08:50:00,
2013-07-15 05:00:00,67.7,66.2,30.29,West,259,0.0,0.0,95,0.00,,,0.01,Wunderground v.1.15,2013-07-15 09:00:00,
2013-07-15 05:10:00,67.6,66.1,30.29,West,259,0.0,0.0,95,0.00,,,0.01,Wunderground v.1.15,2013-07-15 09:10:00,
2013-07-15 05:20:00,67.5,66.0,30.29,West,259,0.0,0.0,95,0.00,,,0.01,Wunderground v.1.15,2013-07-15 09:20:00,
2013-07-15 05:30:00,67.4,65.9,30.29,West,259,0.0,0.0,95,0.00,,,0.01,Wunderground v.1.15,2013-07-15 09:30:00,
2013-07-15 05:40:00,67.3,65.8,30.30,West,259,0.0,0.0,95,0.00,,,0.01,Wunderground v.1.15,2013-07-15 09:40:00,
2013-07-15 05:50:00,67.1,65.6,30.29,West,259,0.0,0.0,95,0.00,,,0.01,Wunderground v.1.15,2013-07-15 09:50:00,
2013-07-15 06:00:00,67.0,65.5,30.30,West,259,0.0,0.0,95,0.00,,,0.01,Wunderground v.1.15,2013-07-15 10:00:00,
2013-07-15 06:10:00,66.9,65.4,30.30,West,259,0.0,0.0,95,0.00,,,0.01,Wunderground v.1.15,2013-07-15 10:10:00,
2013-07-15 06:20:00,66.8,65.3,30.30,West,259,0.0,0.0,95,0.00,,,0.01,Wunderground v.1.15,2013-07-15 10:20:00,
2013-07-15 06:30:00,66.6,65.1,30.30,West,259,0.0,0.0,95,0.00,,,0.01,Wunderground v.1.15,2013-07-15 10:30:00,
2013-07-15 06:40:00,66.5,65.0,30.30,West,259,0.0,0.0,95,0.00,,,0.01,Wunderground v.1.15,2013-07-15 10:40:00,
2013-07-15 06:50:00,66.4,64.9,30.30,NNE,13,0.0,0.0,95,0.00,,,0.01,Wunderground v.1.15,2013-07-15 10:50:00,
2013-07-15 07:00:00,66.5,65.0,30.31,NW,304,0.0,0.0,95,0.00,,,0.01,Wunderground v.1.15,2013-07-15 11:00:00,
2013-07-15 07:10:00,66.6,65.1,30.31,NW,304,0.0,0.0,95,0.00,,,0.01,Wunderground v.1.15,2013-07-15 11:10:00,
2013-07-15 07:20:00,66.7,65.5,30.31,NW,304,0.0,0.0,96,0.00,,,0.01,Wunderground v.1.15,2013-07-15 11:20:00,
2013-07-15 07:30:00,67.0,65.8,30.31,NW,323,0.0,0.0,96,0.00,,,0.01,Wunderground v.1.15,2013-07-15 11:30:00,
2013-07-15 07:40:00,67.4,66.2,30.31,NW,323,0.0,0.0,96,0.00,,,0.01,Wunderground v.1.15,2013-07-15 11:40:00,
2013-07-15 07:50:00,68.0,66.8,30.32,NW,323,0.0,0.0,96,0.00,,,0.01,Wunderground v.1.15,2013-07-15 11:50:00,
2013-07-15 08:00:00,68.3,67.1,30.32,NW,323,0.0,0.0,96,0.00,,,0.01,Wunderground v.1.15,2013-07-15 12:00:00,
2013-07-15 08:10:00,68.8,67.6,30.32,NW,323,0.0,0.0,96,0.00,,,0.01,Wunderground v.1.15,2013-07-15 12:10:00,
2013-07-15 08:20:00,69.4,68.2,30.32,NW,323,0.0,0.0,96,0.00,,,0.01,Wunderground v.1.15,2013-07-15 12:20:00,
2013-07-15 08:30:00,70.2,69.0,30.31,SW,233,0.0,0.0,96,0.00,,,0.01,Wunderground v.1.15,2013-07-15 12:30:00,
2013-07-15 08:40:00,72.0,71.1,30.31,North,360,0.0,0.0,97,0.00,,,0.01,Wunderground v.1.15,2013-07-15 12:40:00,
2013-07-15 08:50:00,73.4,72.5,30.32,ENE,74,0.0,0.0,97,0.00,,,0.01,Wunderground v.1.15,2013-07-15 12:50:00,
2013-07-15 09:00:00,73.7,72.8,30.32,South,178,0.0,0.0,97,0.00,,,0.01,Wunderground v.1.15,2013-07-15 13:00:00,
2013-07-15 09:10:00,74.1,72.9,30.32,South,178,0.0,0.0,96,0.00,,,0.01,Wunderground v.1.15,2013-07-15 13:10:00,
2013-07-15 09:20:00,74.3,73.1,30.32,South,178,0.0,0.0,96,0.00,,,0.01,Wunderground v.1.15,2013-07-15 13:20:00,
2013-07-15 09:30:00,74.6,73.4,30.32,South,178,0.0,0.0,96,0.00,,,0.01,Wunderground v.1.15,2013-07-15 13:30:00,
2013-07-15 09:40:00,74.9,73.7,30.32,South,178,0.0,0.0,96,0.00,,,0.01,Wunderground v.1.15,2013-07-15 13:40:00,
2013-07-15 09:50:00,75.6,74.4,30.32,South,178,0.0,0.0,96,0.00,,,0.01,Wunderground v.1.15,2013-07-15 13:50:00,
2013-07-15 10:00:00,76.7,75.5,30.32,South,178,0.0,0.0,96,0.00,,,0.01,Wunderground v.1.15,2013-07-15 14:00:00,
2013-07-15 10:10:00,78.1,76.2,30.32,South,178,0.0,0.0,94,0.00,,,0.01,Wunderground v.1.15,2013-07-15 14:10:00,
2013-07-15 10:20:00,78.4,75.9,30.32,South,178,0.0,0.0,92,0.00,,,0.01,Wunderground v.1.15,2013-07-15 14:20:00,
2013-07-15 10:30:00,78.9,76.0,30.32,South,178,0.0,0.0,91,0.00,,,0.01,Wunderground v.1.15,2013-07-15 14:30:00,
2013-07-15 10:40:00,79.3,76.4,30.32,SE,136,0.0,0.0,91,0.00,,,0.01,Wunderground v.1.15,2013-07-15 14:40:00,
2013-07-15 10:50:00,79.9,76.7,30.32,SE,136,0.0,0.0,90,0.00,,,0.01,Wunderground v.1.15,2013-07-15 14:50:00,
2013-07-15 11:00:00,80.4,76.5,30.32,SE,136,0.0,0.0,88,0.00,,,0.01,Wunderground v.1.15,2013-07-15 15:00:00,
2013-07-15 11:10:00,81.1,76.9,30.32,SE,136,0.0,0.0,87,0.00,,,0.01,Wunderground v.1.15,2013-07-15 15:10:00,
2013-07-15 11:20:00,81.7,75.7,30.32,SE,136,0.0,0.0,82,0.00,,,0.01,Wunderground v.1.15,2013-07-15 15:20:00,
2013-07-15 11:50:00,82.3,77.0,30.32,SE,143,1.0,1.0,84,0.00,,,0.01,Wunderground v.1.15,2013-07-15 15:50:00,
2013-07-15 12:00:00,82.6,76.9,30.32,SE,144,1.0,1.0,83,0.00,,,0.01,Wunderground v.1.15,2013-07-15 16:00:00,
2013-07-15 12:10:00,82.6,76.5,30.32,SE,144,0.0,0.0,82,0.00,,,0.01,Wunderground v.1.15,2013-07-15 16:10:00,
2013-07-15 12:20:00,82.7,75.5,30.32,SE,144,0.0,0.0,79,0.00,,,0.01,Wunderground v.1.15,2013-07-15 16:20:00,
2013-07-15 12:30:00,82.7,76.6,30.31,SE,144,0.0,1.0,82,0.00,,,0.01,Wunderground v.1.15,2013-07-15 16:30:00,
2013-07-15 12:40:00,83.6,75.6,30.31,SE,144,0.0,0.0,77,0.00,,,0.01,Wunderground v.1.15,2013-07-15 16:40:00,
2013-07-15 12:50:00,83.2,76.4,30.31,SE,144,0.0,0.0,80,0.00,,,0.01,Wunderground v.1.15,2013-07-15 16:50:00,
2013-07-15 13:00:00,82.6,76.9,30.30,SE,144,0.0,0.0,83,0.00,,,0.01,Wunderground v.1.15,2013-07-15 17:00:00,
2013-07-15 13:10:00,82.2,76.5,30.30,SE,144,0.0,0.0,83,0.00,,,0.01,Wunderground v.1.15,2013-07-15 17:10:00,
2013-07-15 13:20:00,82.6,75.4,30.30,SE,144,0.0,0.0,79,0.00,,,0.01,Wunderground v.1.15,2013-07-15 17:20:00,
2013-07-15 13:30:00,83.7,75.7,30.29,SE,144,1.0,1.0,77,0.00,,,0.01,Wunderground v.1.15,2013-07-15 17:30:00,
2013-07-15 13:40:00,84.9,77.3,30.29,SE,144,0.0,0.0,78,0.00,,,0.01,Wunderground v.1.15,2013-07-15 17:40:00,
2013-07-15 13:50:00,84.9,76.9,30.29,SE,144,0.0,0.0,77,0.00,,,0.01,Wunderground v.1.15,2013-07-15 17:50:00,
2013-07-15 14:00:00,85.3,76.1,30.29,SE,145,1.0,1.0,74,0.00,,,0.01,Wunderground v.1.15,2013-07-15 18:00:00,
2013-07-15 14:10:00,85.5,75.9,30.29,SE,145,0.0,0.0,73,0.00,,,0.01,Wunderground v.1.15,2013-07-15 18:10:00,
2013-07-15 14:20:00,86.1,76.8,30.29,SSE,147,0.0,2.0,74,0.00,,,0.01,Wunderground v.1.15,2013-07-15 18:20:00,
2013-07-15 14:30:00,86.1,76.8,30.28,South,174,1.0,1.0,74,0.00,,,0.01,Wunderground v.1.15,2013-07-15 18:30:00,
2013-07-15 14:40:00,86.0,76.3,30.28,South,174,0.0,1.0,73,0.00,,,0.01,Wunderground v.1.15,2013-07-15 18:40:00,
2013-07-15 14:50:00,86.2,76.9,30.27,South,174,0.0,0.0,74,0.00,,,0.01,Wunderground v.1.15,2013-07-15 18:50:00,
2013-07-15 15:00:00,86.0,76.3,30.27,South,175,0.0,1.0,73,0.00,,,0.01,Wunderground v.1.15,2013-07-15 19:00:00,
2013-07-15 15:10:00,86.0,75.5,30.27,West,264,0.0,0.0,71,0.00,,,0.01,Wunderground v.1.15,2013-07-15 19:10:00,
2013-07-15 15:20:00,86.2,76.5,30.27,West,264,0.0,0.0,73,0.00,,,0.01,Wunderground v.1.15,2013-07-15 19:20:00,
2013-07-15 15:30:00,86.1,76.4,30.27,SW,236,0.0,1.0,73,0.00,,,0.01,Wunderground v.1.15,2013-07-15 19:30:00,
2013-07-15 15:40:00,85.4,76.6,30.27,WSW,238,0.0,0.0,75,0.00,,,0.01,Wunderground v.1.15,2013-07-15 19:40:00,
2013-07-15 15:50:00,85.4,74.5,30.26,SW,231,0.0,1.0,70,0.00,,,0.01,Wunderground v.1.15,2013-07-15 19:50:00,
2013-07-15 16:00:00,85.4,74.5,30.26,WNW,288,0.0,0.0,70,0.00,,,0.01,Wunderground v.1.15,2013-07-15 20:00:00,
2013-07-15 16:10:00,84.6,74.6,30.26,WNW,287,0.0,0.0,72,0.00,,,0.01,Wunderground v.1.15,2013-07-15 20:10:00,
2013-07-15 16:30:00,84.4,74.4,30.26,WNW,287,0.0,0.0,72,0.00,,,0.01,Wunderground v.1.15,2013-07-15 20:30:00,
2013-07-15 16:40:00,85.1,73.8,30.26,WNW,288,0.0,0.0,69,0.00,,,0.01,Wunderground v.1.15,2013-07-15 20:40:00,
2013-07-15 16:50:00,84.7,75.1,30.25,WNW,288,0.0,0.0,73,0.00,,,0.01,Wunderground v.1.15,2013-07-15 20:50:00,
2013-07-15 17:00:00,84.5,76.5,30.25,WNW,287,0.0,0.0,77,0.00,,,0.01,Wunderground v.1.15,2013-07-15 21:00:00,
2013-07-15 17:10:00,84.4,76.4,30.25,WNW,287,0.0,0.0,77,0.00,,,0.01,Wunderground v.1.15,2013-07-15 21:10:00,
2013-07-15 17:20:00,84.1,75.7,30.26,WNW,288,0.0,0.0,76,0.00,,,0.01,Wunderground v.1.15,2013-07-15 21:20:00,
2013-07-15 17:30:00,84.1,76.5,30.25,WNW,288,0.0,0.0,78,0.00,,,0.01,Wunderground v.1.15,2013-07-15 21:30:00,
2013-07-15 17:40:00,84.1,76.9,30.25,WNW,288,0.0,0.0,79,0.00,,,0.01,Wunderground v.1.15,2013-07-15 21:40:00,
2013-07-15 17:50:00,83.9,77.1,30.24,WNW,288,0.0,0.0,80,0.00,,,0.01,Wunderground v.1.15,2013-07-15 21:50:00,
2013-07-15 18:00:00,83.4,76.6,30.25,WNW,288,0.0,0.0,80,0.00,,,0.01,Wunderground v.1.15,2013-07-15 22:00:00,
2013-07-15 18:10:00,83.2,75.2,30.25,ENE,58,0.0,0.0,77,0.00,,,0.01,Wunderground v.1.15,2013-07-15 22:10:00,
2013-07-15 18:20:00,82.8,74.5,30.25,ESE,119,0.0,0.0,76,0.00,,,0.01,Wunderground v.1.15,2013-07-15 22:20:00,
2013-07-15 18:30:00,83.0,75.0,30.24,ESE,119,0.0,0.0,77,0.00,,,0.01,Wunderground v.1.15,2013-07-15 22:30:00,
2013-07-15 18:40:00,82.6,75.0,30.25,ESE,119,0.0,0.0,78,0.00,,,0.01,Wunderground v.1.15,2013-07-15 22:40:00,
2013-07-15 18:50:00,82.5,76.1,30.25,ESE,119,0.0,0.0,81,0.00,,,0.01,Wunderground v.1.15,2013-07-15 22:50:00,
2013-07-15 19:00:00,82.2,76.2,30.24,ESE,120,0.0,0.0,82,0.00,,,0.01,Wunderground v.1.15,2013-07-15 23:00:00,
2013-07-15 19:10:00,81.7,76.0,30.25,ESE,120,0.0,0.0,83,0.00,,,0.01,Wunderground v.1.15,2013-07-15 23:10:00,
2013-07-15 19:20:00,81.3,76.0,30.25,ESE,121,0.0,0.0,84,0.00,,,0.01,Wunderground v.1.15,2013-07-15 23:20:00,
2013-07-15 19:30:00,81.0,75.7,30.25,ESE,120,0.0,0.0,84,0.00,,,0.01,Wunderground v.1.15,2013-07-15 23:30:00,
2013-07-15 19:40:00,80.8,75.5,30.25,ESE,121,0.0,0.0,84,0.00,,,0.01,Wunderground v.1.15,2013-07-15 23:40:00,
2013-07-15 19:50:00,80.3,75.0,30.25,ESE,119,0.0,0.0,84,0.00,,,0.01,Wunderground v.1.15,2013-07-15 23:50:00,
2013-07-15 20:00:00,80.1,75.2,30.25,ESE,119,0.0,0.0,85,0.00,,,0.01,Wunderground v.1.15,2013-07-16 00:00:00,
2013-07-15 20:10:00,79.8,74.5,30.24,ESE,119,0.0,0.0,84,0.00,,,0.01,Wunderground v.1.15,2013-07-16 00:10:00,
2013-07-15 20:20:00,79.3,74.0,30.24,ESE,120,0.0,0.0,84,0.00,,,0.01,Wunderground v.1.15,2013-07-16 00:20:00,
2013-07-15 20:30:00,78.7,73.5,30.25,ESE,120,0.0,0.0,84,0.00,,,0.01,Wunderground v.1.15,2013-07-16 00:30:00,
2013-07-15 20:40:00,78.4,73.5,30.25,ESE,120,0.0,0.0,85,0.00,,,0.01,Wunderground v.1.15,2013-07-16 00:40:00,
2013-07-15 20:50:00,77.9,73.4,30.24,ESE,119,0.0,0.0,86,0.00,,,0.01,Wunderground v.1.15,2013-07-16 00:50:00,
2013-07-15 21:00:00,77.5,73.0,30.25,ESE,121,0.0,0.0,86,0.00,,,0.01,Wunderground v.1.15,2013-07-16 01:00:00,
2013-07-15 21:10:00,77.1,72.6,30.25,ESE,120,0.0,0.0,86,0.00,,,0.01,Wunderground v.1.15,2013-07-16 01:10:00,
2013-07-15 21:20:00,76.6,72.4,30.25,ESE,120,0.0,0.0,87,0.00,,,0.01,Wunderground v.1.15,2013-07-16 01:20:00,
2013-07-15 21:30:00,76.2,72.4,30.25,ESE,120,0.0,0.0,88,0.00,,,0.01,Wunderground v.1.15,2013-07-16 01:30:00,
2013-07-15 21:40:00,75.9,72.1,30.26,ESE,120,0.0,0.0,88,0.00,,,0.01,Wunderground v.1.15,2013-07-16 01:40:00,
2013-07-15 21:50:00,75.5,71.7,30.26,ESE,120,0.0,0.0,88,0.00,,,0.01,Wunderground v.1.15,2013-07-16 01:50:00,
2013-07-15 22:00:00,75.2,71.7,30.27,ESE,120,0.0,0.0,89,0.00,,,0.01,Wunderground v.1.15,2013-07-16 02:00:00,
2013-07-15 22:10:00,74.9,71.4,30.27,ESE,120,0.0,0.0,89,0.00,,,0.01,Wunderground v.1.15,2013-07-16 02:10:00,
2013-07-15 22:20:00,74.7,71.2,30.27,ESE,120,0.0,0.0,89,0.00,,,0.01,Wunderground v.1.15,2013-07-16 02:20:00,
2013-07-15 22:30:00,74.4,71.3,30.26,ESE,120,0.0,0.0,90,0.00,,,0.01,Wunderground v.1.15,2013-07-16 02:30:00,
2013-07-15 22:40:00,74.2,71.1,30.26,ESE,121,0.0,0.0,90,0.00,,,0.01,Wunderground v.1.15,2013-07-16 02:40:00,
2013-07-15 22:50:00,74.0,70.9,30.26,ESE,119,0.0,0.0,90,0.00,,,0.01,Wunderground v.1.15,2013-07-16 02:50:00,
2013-07-15 23:00:00,73.7,70.6,30.26,ESE,121,0.0,0.0,90,0.00,,,0.01,Wunderground v.1.15,2013-07-16 03:00:00,
2013-07-15 23:10:00,73.5,70.7,30.26,ESE,121,0.0,0.0,91,0.00,,,0.01,Wunderground v.1.15,2013-07-16 03:10:00,
2013-07-15 23:20:00,73.2,70.4,30.26,ESE,119,0.0,0.0,91,0.00,,,0.01,Wunderground v.1.15,2013-07-16 03:20:00,
2013-07-15 23:30:00,73.0,70.2,30.26,ESE,119,0.0,0.0,91,0.00,,,0.01,Wunderground v.1.15,2013-07-16 03:30:00,
2013-07-15 23:40:00,72.7,69.9,30.26,ESE,119,0.0,0.0,91,0.00,,,0.01,Wunderground v.1.15,2013-07-16 03:40:00,